Retour au catalogue

STARLINK-11654

ActifCommunicationsVLEO
NORAD 63265·PAYLOAD·🇺🇸 United States

Lancé Mar 15, 2025 depuis Cape Canaveral Space Force Station

Loading…

Prochains Passages (prochaines 24 heures)

TLE

FraisSource: CelesTrak SupGP

Époque: Sep 15, 2026, 02:18 UTC

1 63265C 25053A   26258.09631944 -.00082438  00000+0 -63980-3 0  2589
2 63265  43.0009  50.5071 0001679 268.9021 272.8098 15.70897431    11

Suivez STARLINK-11654 en temps réel avec AllMySat

Download on the App Store